Theta_e
333 328 328 325 325 324 320 318 305 310 310 302 302 304 302 307 308 309 310 312 310 314 315 315 318 316 313 313 315 316 316 313 314 307 308 323 332 335 336 337 340 343 343 344 345 346 347 347 346 345 342 341 342 342 341 340 340 340 341 347 347 346 346 346 345 345 345 346 346 345 345 345 343 342 341 341 341 341 342 341 341 341 341 340 340 341 341 340 340 339 338 338 338 338 337 336 335
329 327 328 325 324 325 317 313 307 304 305 302 301 303 304 306 307 309 310 312 313 315 317 318 318 319 320 320 318 319 318 322 317 322 326 328 332 334 336 338 340 341 342 344 345 345 343 344 345 344 341 340 340 340 341 340 340 340 342 345 346 346 345 346 346 345 346 345 345 345 344 343 343 342 342 342 341 341 341 341 341 341 341 340 340 340 340 340 339 338 338 338 337 337 337 336 335
326 326 326 327 325 320 316 314 303 301 300 298 300 303 305 304 306 310 312 313 316 319 320 319 319 319 317 317 316 314 313 324 323 324 326 330 326 330 335 339 340 343 343 344 344 344 343 343 343 344 341 340 339 339 339 338 340 342 345 345 345 346 346 345 345 346 346 346 346 345 345 344 341 340 340 340 340 341 340 340 341 340 340 341 341 339 338 339 339 338 338 338 337 336 336 336 335
328 329 324 324 320 321 314 310 305 301 299 299 301 305 305 305 306 310 313 317 319 318 317 315 315 322 318 314 316 318 317 321 326 326 324 326 327 333 336 338 341 344 344 344 344 343 343 343 342 343 341 339 339 339 340 339 340 342 344 345 345 345 345 345 346 345 345 345 345 345 344 344 343 342 340 340 339 339 339 340 340 341 341 340 340 340 340 339 339 338 338 338 337 336 336 335 335
328 328 326 324 319 313 312 307 306 305 299 301 300 306 307 307 307 309 312 319 317 316 317 318 319 322 322 320 319 315 319 324 326 327 329 331 335 335 336 338 339 343 343 344 343 343 343 341 341 342 340 339 339 339 340 340 341 345 345 346 345 345 345 346 345 345 345 345 345 345 344 343 343 341 340 340 340 340 340 340 340 339 339 339 339 340 340 341 340 339 338 337 338 337 336 335 334
327 326 329 325 315 315 312 307 307 306 306 306 304 307 308 308 307 309 314 317 318 318 316 318 318 318 317 322 323 320 322 318 327 327 329 331 334 337 336 340 339 341 342 343 343 343 343 340 340 342 341 340 340 340 341 341 341 345 346 345 345 344 344 344 345 345 345 345 345 345 344 342 342 342 340 340 339 339 340 340 339 340 340 340 339 339 339 339 338 337 337 336 336 336 335 334 334
323 324 324 323 318 317 310 308 306 306 307 307 307 309 310 309 308 310 315 315 318 317 314 317 318 318 314 322 321 326 328 327 326 328 331 334 337 336 336 337 338 340 342 342 342 342 343 339 341 342 342 341 340 340 342 342 343 345 346 345 344 344 344 344 345 345 345 345 346 345 343 343 341 340 340 340 339 339 340 339 339 338 339 339 339 339 339 339 339 338 337 336 336 335 334 334 334
327 322 318 315 312 314 309 308 308 308 307 305 308 309 311 309 309 311 315 314 314 314 314 319 320 317 316 321 315 326 328 328 329 329 333 333 335 336 337 337 336 338 341 342 343 343 343 338 340 342 343 340 340 340 341 342 344 345 345 345 344 344 344 344 344 344 345 345 344 344 344 342 342 342 341 340 339 339 339 339 339 338 338 338 338 339 338 338 338 337 337 336 335 334 333 333 333
324 321 319 316 310 312 308 308 308 308 309 308 309 310 312 310 310 311 314 316 312 314 315 318 319 312 317 319 318 325 327 327 328 331 333 334 334 336 335 335 335 336 340 341 342 344 343 338 339 341 343 342 342 342 341 344 345 345 345 344 344 344 343 344 344 345 345 345 345 344 343 342 342 340 340 339 338 339 338 338 338 338 337 338 338 337 337 337 338 336 336 336 334 334 333 333 333
322 319 314 313 312 307 307 308 307 308 309 311 310 312 312 310 309 312 315 314 313 313 317 320 317 312 316 312 319 323 326 329 331 331 333 334 335 336 335 336 336 337 337 340 341 342 342 342 338 340 341 342 342 343 344 345 345 345 344 344 345 344 343 343 344 345 345 344 344 344 343 342 341 340 339 339 339 338 338 338 338 338 338 338 338 338 337 337 337 337 336 335 334 333 333 333 333
316 318 317 312 308 306 306 307 309 310 309 312 312 313 310 311 310 311 316 315 314 313 317 318 315 315 316 316 320 326 326 329 330 328 332 334 334 334 334 335 337 338 336 339 341 342 341 340 342 337 339 340 341 343 345 345 344 344 344 344 345 344 343 343 345 345 344 344 344 343 342 341 341 340 339 339 339 338 338 338 338 337 338 338 337 337 337 337 336 337 336 335 334 334 333 332 333
314 314 316 309 307 306 307 307 308 310 312 312 311 310 309 310 312 311 313 311 312 312 315 318 313 320 314 316 319 324 325 328 331 331 332 333 333 334 334 335 337 337 338 339 341 340 341 342 341 342 335 337 338 341 342 343 344 344 344 344 344 344 343 343 345 344 344 344 343 343 342 341 340 340 339 338 339 339 338 338 337 337 337 337 337 337 337 336 336 337 336 336 335 334 333 332 333
315 315 312 308 308 308 307 306 308 307 310 311 309 309 310 311 311 314 314 314 313 312 313 320 323 319 309 312 323 324 322 328 332 332 333 332 333 333 335 335 336 337 337 339 339 339 341 340 340 341 339 332 334 337 337 340 342 344 344 344 344 345 345 345 345 344 343 343 343 343 343 342 340 339 338 339 339 338 337 338 337 337 337 337 336 336 336 336 336 336 336 336 336 335 334 334 333
316 316 313 308 308 307 306 308 308 307 309 310 309 308 311 311 313 313 314 312 312 312 315 319 320 318 313 317 319 323 325 330 331 332 333 333 333 333 334 335 337 336 338 338 337 338 339 340 339 340 342 340 341 338 334 336 340 342 342 342 343 343 343 343 344 344 343 343 342 341 341 341 340 340 339 339 339 339 338 337 337 337 336 336 336 336 336 336 336 336 336 336 336 336 335 335 334
316 316 313 311 308 306 308 306 308 307 308 311 307 307 310 312 311 312 313 312 313 317 319 321 323 315 309 311 314 320 327 330 331 332 332 332 332 332 333 334 335 336 336 336 336 337 337 339 339 340 340 339 339 339 342 344 335 338 339 339 340 340 341 339 339 340 339 339 339 338 339 338 337 337 337 336 336 335 335 333 334 337 336 336 335 336 336 336 335 335 335 335 335 335 335 335 334
319 316 313 308 306 306 307 307 306 307 309 312 306 305 309 312 311 311 313 314 314 314 318 315 320 315 318 315 321 323 328 330 331 331 331 330 331 332 332 333 333 334 335 335 335 336 338 338 339 338 339 338 339 338 340 342 335 333 336 337 336 336 336 336 335 334 333 332 333 333 333 337 335 338 332 336 332 333 333 332 331 336 336 336 335 335 335 335 335 335 334 334 334 334 334 333 332
318 318 308 308 305 305 308 307 307 305 311 311 307 305 307 308 310 311 312 313 312 313 315 320 319 323 320 320 324 324 328 331 329 329 329 328 328 328 330 330 331 331 333 334 335 335 337 337 336 336 337 337 339 338 339 341 344 332 333 332 331 331 333 333 331 327 325 324 328 326 331 340 340 340 340 339 329 337 326 326 330 334 336 335 335 335 335 334 335 334 333 333 332 330 329 328 328
316 309 308 306 308 307 311 309 310 312 311 309 307 308 308 308 309 310 314 313 312 315 314 318 320 321 324 325 325 326 329 328 328 326 325 325 326 325 326 328 328 328 331 332 334 334 335 336 335 336 336 338 339 339 340 341 342 338 341 342 343 337 332 329 336 342 338 340 324 334 340 339 338 339 338 337 338 337 334 325 327 331 334 335 335 335 335 335 334 334 333 331 329 327 324 331 329
311 310 309 305 309 311 313 313 313 311 311 312 309 307 309 311 311 311 310 311 311 311 313 316 317 321 324 323 324 326 327 326 326 326 325 325 325 324 324 326 327 328 328 330 331 333 335 335 335 334 336 337 338 338 340 339 339 339 341 341 341 336 339 340 342 340 341 340 339 339 337 338 338 338 338 337 338 328 334 324 326 329 331 331 332 331 331 330 331 331 330 329 325 321 333 332 331
312 310 305 307 313 312 312 314 313 314 314 312 311 309 308 310 311 313 310 313 312 311 312 314 314 315 321 322 323 325 326 325 326 325 325 325 326 325 325 325 326 327 327 329 330 332 334 334 335 335 335 336 337 336 338 336 337 338 338 339 339 340 341 340 340 340 340 339 338 338 337 337 337 337 333 330 331 334 331 322 321 321 322 324 325 330 326 325 325 324 323 322 324 328 331 330 330
312 308 306 309 313 310 313 313 314 314 313 313 312 307 308 310 311 311 312 310 312 313 316 315 315 316 320 322 323 325 325 324 324 325 325 326 327 327 326 326 326 327 328 330 331 331 333 334 334 334 336 336 337 335 335 335 336 335 337 338 338 339 339 340 339 339 339 338 338 337 337 336 336 336 335 334 335 336 335 335 333 335 335 335 325 333 332 332 330 333 332 328 331 331 330 331 331
311 309 312 312 311 310 314 314 314 312 308 310 308 309 313 309 308 310 311 310 312 316 316 317 316 316 323 321 323 325 324 323 324 325 325 325 325 326 327 328 328 329 329 328 328 330 332 334 334 334 335 336 336 335 335 333 334 335 335 336 337 337 338 338 337 338 337 336 336 336 336 335 335 334 335 334 334 335 334 334 334 335 334 333 331 332 330 331 332 331 331 330 330 329 330 331 330
307 311 311 312 312 310 314 314 312 310 310 310 309 311 309 308 309 309 310 310 314 315 314 314 316 317 320 324 324 323 324 324 324 324 325 326 326 327 326 327 327 326 327 328 329 330 331 333 334 335 334 334 335 336 335 334 334 334 335 335 335 336 336 336 336 336 336 335 335 334 333 333 333 333 333 334 334 334 333 334 334 333 332 332 331 331 330 331 331 330 329 329 329 329 330 330 330
311 309 312 312 313 310 313 312 310 311 310 311 311 306 309 309 308 308 308 312 314 315 314 315 316 317 322 322 323 323 324 325 325 326 327 327 327 327 328 327 327 328 328 327 329 329 330 331 333 334 334 334 334 335 334 333 334 334 335 334 335 333 335 335 335 335 335 334 334 333 332 334 333 332 331 332 333 332 332 333 333 332 331 330 330 330 329 330 329 330 330 330 329 329 328 329 329
308 308 312 312 312 312 313 312 308 309 311 306 305 307 310 311 311 307 309 314 316 317 315 315 317 319 320 320 322 323 324 326 326 327 328 329 329 329 329 329 329 328 326 328 329 328 329 330 332 332 333 333 333 334 333 332 333 334 334 334 334 331 334 334 334 335 333 333 333 333 332 332 332 332 331 331 332 331 331 332 332 330 330 329 328 328 329 329 330 329 329 329 329 329 329 329 329
310 309 312 312 312 313 314 311 311 309 310 308 308 309 313 315 309 308 312 315 317 317 315 315 318 318 320 320 321 322 323 324 326 326 327 328 329 328 328 328 328 327 327 328 329 329 330 329 331 331 332 332 333 333 332 332 331 332 332 333 334 333 333 333 334 334 334 333 332 332 332 332 332 331 331 331 330 330 330 330 330 329 329 329 327 327 328 328 328 328 327 328 329 329 329 328 329
311 310 311 310 311 312 313 310 312 311 311 310 309 310 312 309 310 308 316 317 318 315 313 316 316 316 319 320 321 322 323 324 325 327 327 327 328 327 327 328 328 327 328 328 329 329 330 329 329 331 332 332 333 332 332 331 331 330 332 333 334 333 333 333 333 333 333 332 332 331 331 331 332 332 331 331 330 330 329 328 328 329 328 328 327 326 328 327 327 327 327 327 328 328 329 329 328
309 310 310 310 311 311 311 309 310 309 309 310 310 310 313 306 309 309 315 312 310 311 311 314 315 316 317 320 321 323 323 324 326 326 325 325 326 327 327 327 327 328 328 328 329 330 329 328 328 330 331 332 331 331 331 331 330 330 331 332 332 333 334 333 332 332 331 332 332 331 330 331 330 331 331 330 330 329 328 328 328 327 327 327 326 326 326 325 325 326 326 325 325 326 327 328 329
309 308 303 305 308 307 310 309 310 309 308 309 310 307 306 304 305 311 314 317 314 313 314 313 315 316 317 320 322 322 322 323 324 324 325 326 328 328 328 329 329 328 330 330 330 330 328 329 328 328 330 331 330 330 330 331 331 331 331 331 331 333 333 333 332 331 331 332 331 331 330 330 329 329 330 330 329 328 328 328 327 326 327 326 326 325 325 325 324 323 323 322 322 323 324 326 328
309 307 304 303 303 303 307 311 311 308 310 310 309 299 304 308 309 313 316 314 313 312 312 314 314 316 318 319 320 321 323 323 322 323 325 326 327 328 328 330 330 330 330 330 331 329 329 330 329 328 329 329 329 330 330 330 330 331 331 331 331 332 331 331 331 331 330 330 330 330 330 329 328 329 329 329 329 328 327 327 327 326 326 326 325 325 324 324 323 323 323 322 319 321 323 325 326
302 305 306 300 299 298 307 308 310 306 308 309 310 299 303 309 312 313 314 313 312 311 313 314 313 314 317 319 319 320 322 324 323 323 325 326 327 328 328 329 329 330 330 330 329 329 329 329 328 328 328 329 329 329 329 330 330 330 330 330 331 332 330 330 330 330 330 330 329 329 329 328 328 329 329 329 328 328 327 326 326 326 327 326 324 324 323 323 323 323 323 322 323 322 324 325 325
305 300 297 301 298 300 305 309 308 303 305 310 308 300 302 308 312 316 314 311 310 310 313 314 314 313 314 317 318 319 321 324 324 324 324 325 326 326 327 327 328 329 329 330 330 330 329 329 329 329 329 328 329 329 329 329 330 330 330 327 330 331 330 330 330 330 330 330 329 329 329 328 328 328 328 328 327 327 326 326 326 326 325 325 324 323 322 322 322 323 324 324 325 325 325 324 325
304 299 297 298 300 300 302 306 309 308 307 306 307 300 304 304 311 314 314 311 309 309 311 313 314 312 313 315 317 318 320 322 324 324 325 325 325 325 326 326 327 328 329 329 329 330 330 330 329 329 328 328 329 329 329 329 330 330 329 329 329 329 329 329 330 331 330 329 329 328 328 328 327 328 328 328 327 327 326 326 326 325 325 324 324 323 321 322 323 323 324 325 326 324 324 324 323
298 302 297 299 298 300 298 304 307 310 308 303 305 303 304 307 310 312 310 310 310 310 312 313 314 312 312 314 316 317 318 320 321 323 324 325 326 325 325 324 326 327 328 328 329 329 329 330 330 329 330 330 329 329 328 329 329 329 329 329 327 328 328 328 328 328 328 328 328 328 328 327 326 327 327 328 327 327 327 326 325 325 324 323 323 323 323 323 324 325 325 326 325 325 323 322 322
295 297 297 297 299 300 299 299 304 306 306 305 304 302 304 307 310 311 310 308 308 309 311 313 313 312 311 311 312 315 317 319 320 324 325 326 326 326 326 326 326 327 327 327 328 329 329 330 329 329 329 330 329 329 329 328 329 329 329 329 328 327 327 328 328 327 327 327 326 327 327 326 326 326 326 327 326 326 325 326 325 325 324 323 322 322 323 323 324 324 325 325 326 325 324 323 323
298 298 298 299 296 297 298 302 305 306 304 303 304 302 303 305 307 310 311 309 306 307 309 310 310 309 309 309 309 311 313 315 319 323 326 326 327 327 327 326 326 326 326 326 326 328 328 329 329 329 328 330 330 329 329 327 328 327 326 327 327 326 326 326 327 327 327 327 327 326 326 326 326 325 326 326 326 325 325 325 325 325 324 323 321 321 322 323 322 322 323 324 325 324 323 323 323
300 299 299 298 298 299 303 303 305 307 303 302 303 304 304 305 306 308 310 312 309 308 308 308 308 309 308 308 308 309 310 312 318 322 323 324 326 327 328 327 326 325 325 325 325 326 327 327 327 327 329 329 329 327 327 326 325 325 326 325 324 326 325 326 326 326 327 327 327 327 327 327 327 326 325 326 326 323 324 325 325 324 324 322 321 321 323 323 324 325 324 324 322 322 322 322 320
300 298 297 296 297 295 301 302 306 305 302 300 303 303 304 305 307 308 309 309 308 308 308 309 309 310 310 310 310 311 311 314 316 314 315 319 322 326 327 327 327 324 324 324 324 325 326 327 327 327 328 329 328 328 328 327 327 327 325 325 325 326 326 324 324 326 326 327 327 327 327 327 328 327 326 326 327 326 324 324 325 324 323 322 322 323 323 321 324 324 324 322 321 321 321 322 320
301 298 297 296 296 299 302 302 305 305 303 299 302 300 302 304 306 309 308 308 309 311 310 310 310 311 311 311 311 311 312 312 313 313 314 315 321 323 325 326 327 326 326 324 324 325 325 326 326 327 328 328 328 329 329 328 328 329 328 327 327 327 328 328 327 327 327 326 327 327 327 327 328 327 327 326 327 327 326 325 325 324 323 323 321 321 323 322 323 322 323 321 320 320 319 322 320
299 298 296 294 298 296 293 300 303 304 302 299 301 300 301 304 306 307 309 309 309 311 311 311 311 311 311 312 313 313 313 314 314 315 314 314 315 321 323 324 326 327 326 325 324 324 325 325 326 326 327 328 328 329 327 330 330 330 330 330 330 329 328 328 328 328 327 327 326 327 326 326 327 327 327 327 326 327 327 327 327 326 324 324 323 322 322 322 322 322 322 321 321 318 315 317 319
299 299 297 296 296 297 297 297 301 304 304 304 301 299 298 301 300 303 307 309 309 309 311 311 313 312 313 315 315 315 314 314 315 316 316 316 315 315 320 323 325 326 326 326 326 324 324 325 326 327 327 327 328 328 328 329 329 329 329 329 328 328 327 327 326 325 326 326 326 326 326 327 327 327 327 327 326 327 328 328 327 327 326 325 325 324 324 323 323 323 322 321 320 319 319 319 319
297 300 299 299 299 298 298 299 299 297 297 301 299 291 292 299 300 301 305 306 306 308 308 309 310 312 312 311 313 314 315 316 315 315 316 317 317 316 317 321 323 325 325 327 328 326 325 325 326 326 327 327 327 328 328 328 328 327 326 324 322 322 322 322 321 322 324 324 324 326 327 327 326 326 326 326 326 325 327 327 328 327 326 325 325 325 325 325 324 323 322 321 320 321 320 319 318
294 296 303 301 300 299 298 297 297 291 289 298 302 291 286 297 297 301 303 304 305 307 307 308 309 310 311 311 313 313 313 314 316 316 316 316 318 317 316 318 322 323 325 328 328 328 327 326 326 326 326 326 327 327 328 327 327 327 326 325 325 323 322 324 325 326 326 327 327 326 326 326 326 325 325 326 326 326 325 327 327 327 327 326 325 325 325 325 325 324 323 322 322 321 320 318 318
293 303 303 302 300 298 298 297 296 294 299 298 298 298 289 289 295 300 302 301 301 303 306 307 308 310 310 311 312 313 313 314 314 316 316 316 316 317 316 316 318 321 324 327 328 328 327 326 326 326 326 326 327 327 327 327 326 326 326 326 325 325 325 324 326 326 327 327 326 326 326 326 326 326 325 325 326 325 325 326 326 326 326 326 325 325 325 326 326 325 323 323 323 322 321 318 318
298 303 303 300 300 300 299 296 295 296 295 290 295 297 290 289 295 301 301 298 299 300 302 305 307 309 310 311 312 313 314 314 314 314 316 317 316 316 316 317 317 319 322 326 327 327 328 328 327 327 326 326 326 326 326 326 325 326 326 326 325 325 326 326 327 327 326 326 325 326 325 326 325 325 325 325 325 325 324 325 326 325 325 325 324 326 325 326 325 325 323 321 321 322 321 321 320
302 303 304 303 302 301 299 296 295 294 290 285 291 295 287 288 294 297 300 298 297 299 302 304 306 309 310 310 312 313 314 315 315 315 315 316 317 318 318 318 317 317 320 325 325 327 328 328 327 326 325 326 326 326 325 325 325 324 325 326 325 325 325 326 327 326 326 327 325 325 325 325 325 325 325 325 325 325 325 324 325 325 325 325 323 325 325 325 325 325 324 323 322 321 321 321 320
306 303 300 299 300 299 299 297 295 291 283 286 293 294 292 285 292 295 296 296 299 300 302 303 305 308 309 311 312 313 313 314 315 316 316 316 317 318 318 317 317 317 321 320 322 324 327 327 327 326 326 326 325 325 325 324 325 324 324 325 325 325 326 325 325 325 325 325 324 324 325 325 326 325 325 324 325 325 325 324 324 325 325 324 323 324 324 325 324 324 324 324 322 321 320 320 319
302 299 296 296 293 296 294 292 294 283 281 289 294 294 294 284 289 297 300 303 302 301 300 301 303 304 307 310 311 312 313 314 315 316 316 317 317 316 317 317 317 317 317 318 320 323 324 326 326 326 326 326 325 325 325 324 324 324 324 324 325 325 326 325 324 324 324 324 324 324 325 325 325 326 325 324 324 325 324 324 324 324 324 324 324 324 324 325 324 324 324 323 322 321 321 320 320
299 297 296 288 284 286 281 286 280 281 282 289 294 295 290 289 293 298 299 300 301 301 302 302 303 303 306 308 311 312 313 314 314 315 316 317 317 316 316 316 316 317 316 316 317 320 322 324 325 325 325 326 325 325 324 324 324 324 323 323 324 325 325 325 325 324 325 324 324 323 324 323 324 324 324 323 324 324 324 324 323 322 323 324 324 325 324 325 325 324 323 323 322 321 321 320 319
294 291 291 286 282 281 279 283 285 286 288 293 292 296 288 293 296 300 300 302 303 304 304 305 304 304 305 307 310 310 313 313 314 315 316 317 317 317 316 316 316 316 316 316 316 316 320 322 323 324 324 326 326 325 324 323 323 324 324 323 324 324 324 325 325 324 325 324 324 323 323 324 323 324 324 324 325 325 324 324 324 324 324 325 324 324 324 324 324 323 323 322 322 322 322 321 320
294 298 295 289 288 283 279 283 281 283 285 290 295 289 285 288 291 302 302 304 305 305 306 306 307 307 308 309 311 312 312 312 313 314 314 314 315 316 316 316 316 317 316 316 316 315 317 319 321 322 323 325 326 325 324 323 323 323 324 324 324 324 324 324 324 325 325 324 324 324 324 324 324 324 324 325 325 325 324 324 324 324 324 324 324 324 323 323 323 323 322 323 322 322 322 321 321
298 298 299 291 288 295 285 288 288 287 286 286 288 287 294 293 301 303 304 303 304 305 306 306 306 307 309 308 308 308 309 309 310 311 312 312 314 315 315 316 316 316 316 316 315 316 316 317 319 321 322 324 325 324 324 323 323 324 324 323 323 323 323 324 324 324 324 325 324 324 324 324 324 325 326 325 326 325 324 324 324 324 324 324 324 324 323 322 322 322 321 321 321 322 322 321 320
294 295 287 290 299 296 290 290 289 288 288 285 292 291 295 300 301 302 303 302 302 304 304 305 306 307 307 306 308 308 310 311 311 312 311 312 313 314 315 314 315 315 316 316 315 315 315 316 318 319 321 323 325 325 324 324 324 323 323 323 324 323 323 323 323 323 323 324 325 324 324 324 325 325 325 326 326 325 325 324 324 324 324 324 324 323 323 322 322 321 321 321 320 321 321 320 321
296 287 293 300 297 294 289 283 287 285 281 283 290 287 290 291 287 302 301 300 302 302 303 304 306 306 306 307 308 309 309 310 312 312 313 314 315 315 316 315 314 314 314 315 314 315 315 315 317 318 319 321 323 325 324 324 323 323 323 323 323 323 323 323 323 323 324 323 324 324 324 324 324 325 325 326 325 324 325 320 324 323 324 324 323 323 322 322 322 321 321 320 321 321 320 320 320
296 294 304 293 283 284 287 286 279 280 280 282 288 289 290 292 292 298 297 299 301 302 303 304 304 305 306 308 308 309 310 311 311 311 313 313 312 315 315 314 314 313 312 313 314 313 314 314 315 316 317 320 322 324 324 324 324 324 324 323 323 323 323 323 323 324 324 324 323 324 324 324 325 325 324 325 324 324 324 323 323 323 324 323 323 323 322 322 322 321 321 320 321 321 320 319 320
301 300 298 297 288 286 286 286 288 288 282 283 282 288 286 295 296 299 299 300 302 303 303 303 305 306 306 307 308 309 310 310 311 311 312 312 313 313 313 313 312 311 311 311 311 312 311 312 312 313 316 318 321 323 324 323 324 324 324 324 324 324 324 323 323 323 323 323 323 323 323 324 324 325 324 324 323 323 323 323 322 323 323 323 323 322 322 322 321 321 320 320 320 320 320 319 320
290 292 291 293 290 294 292 288 286 285 283 284 283 283 288 296 301 300 301 302 303 302 303 304 305 307 308 308 309 310 310 310 311 312 312 312 313 313 314 313 311 311 311 311 311 310 310 311 312 313 313 315 318 321 323 323 324 324 323 323 323 323 323 323 323 323 323 323 324 323 324 324 325 324 324 323 323 323 323 323 323 322 323 323 322 322 322 321 320 320 320 320 321 320 320 320 320
293 292 290 292 289 286 283 280 291 287 284 281 284 281 289 298 303 303 303 304 304 305 304 305 306 307 308 309 310 310 311 311 311 312 312 312 313 313 311 311 310 309 309 309 310 310 310 310 311 312 313 314 316 318 321 323 324 324 324 323 323 324 323 323 323 323 322 323 323 324 324 324 324 324 324 323 322 323 323 323 322 322 322 323 322 322 322 321 320 320 320 320 320 320 319 319 320
Wind_Speed
8 7 5 3 3 2 4 2 4 2 4 3 2 1 4 1 2 2 3 4 4 3 1 2 5 8 2 2 6 4 2 5 5 5 4 3 1 5 4 4 11 13 12 11 11 11 10 8 10 9 10 8 9 10 9 7 6 6 7 11 9 7 7 8 8 9 10 12 12 13 14 14 14 13 12 13 13 13 14 13 13 14 14 15 15 16 16 16 16 16 16 16 17 16 17 17 17
6 7 5 2 2 4 0 3 1 1 1 4 4 2 4 1 3 2 3 3 5 3 2 2 5 3 3 1 0 1 3 3 4 4 4 2 4 6 4 5 13 14 12 11 11 10 10 11 11 10 10 9 8 9 9 8 7 8 9 8 9 8 9 9 9 10 12 13 13 13 14 14 13 13 13 12 12 13 13 13 13 14 14 14 15 15 15 16 16 15 16 16 16 17 16 16 17
6 6 6 2 2 4 1 2 2 2 1 3 4 4 1 3 3 1 1 3 3 3 3 3 3 4 3 3 4 3 3 0 0 2 2 3 9 7 5 6 12 12 12 10 9 10 9 10 11 10 10 9 8 8 9 7 7 8 9 8 8 8 9 10 10 12 13 13 13 14 14 14 12 12 11 12 12 12 13 13 13 13 13 14 14 14 15 15 15 15 15 16 16 16 17 16 16
3 3 5 4 5 1 4 1 3 2 2 3 2 4 1 5 3 4 3 4 6 4 3 6 6 2 4 6 2 1 2 2 0 3 3 7 2 10 7 9 12 11 10 9 9 9 8 11 10 10 10 9 9 9 8 8 6 7 8 9 9 9 8 8 9 11 12 13 14 14 14 14 13 12 11 12 12 12 12 13 13 12 13 13 14 14 14 14 14 15 15 15 15 15 16 16 16
3 1 4 3 4 3 3 3 2 2 1 1 3 3 2 3 5 1 3 5 4 1 1 3 2 2 2 3 1 3 4 3 2 3 2 5 3 10 9 10 11 10 10 10 10 9 9 12 10 10 11 11 10 10 9 8 8 8 7 8 9 10 9 10 10 10 11 12 13 13 14 14 13 12 12 12 12 12 12 12 12 13 13 13 13 13 14 14 14 15 15 15 15 15 15 15 16
2 1 4 3 2 1 3 3 1 2 3 1 0 4 3 4 4 1 5 6 3 1 3 4 3 4 4 1 1 2 2 1 4 3 3 5 7 10 12 11 10 11 11 10 10 9 10 11 10 9 10 12 12 10 10 9 8 8 7 7 8 9 8 9 11 9 10 11 12 14 14 13 12 12 11 12 12 12 12 12 11 11 11 12 13 13 13 14 14 13 13 14 14 14 14 14 14
5 4 2 2 4 2 3 3 2 3 5 2 2 3 5 2 2 3 7 5 4 3 1 2 1 2 4 3 2 1 2 2 3 2 3 8 8 10 12 11 11 12 12 9 10 9 12 11 10 9 9 10 11 10 11 9 9 8 7 6 8 9 8 7 8 8 9 10 13 13 13 14 12 11 11 11 11 12 12 12 11 11 11 11 11 12 13 13 13 14 14 13 13 13 13 13 13
1 4 3 4 2 3 1 2 3 2 3 3 4 6 4 1 2 5 8 8 6 5 5 1 3 5 3 1 2 5 1 1 2 1 4 8 10 10 12 12 12 12 12 11 10 9 11 10 9 9 9 9 10 10 10 10 9 9 8 6 8 8 8 7 7 8 9 9 11 13 12 13 12 12 11 11 11 11 11 11 11 11 11 11 11 11 12 12 13 12 13 13 12 12 12 12 12
4 2 2 3 1 0 1 2 3 0 3 3 6 7 5 1 3 6 9 4 2 3 3 4 3 5 3 3 3 4 2 1 1 3 7 10 11 11 10 12 11 12 12 10 9 9 10 8 8 7 6 9 8 8 8 9 8 8 8 8 8 8 7 6 7 9 10 9 11 12 12 12 12 11 11 11 11 10 10 11 11 11 11 11 11 10 11 11 12 12 12 12 12 11 11 11 11
0 4 1 2 1 4 2 1 3 3 3 2 7 8 5 3 5 7 8 7 2 3 2 2 1 6 2 4 3 5 3 2 4 6 8 10 11 12 11 11 11 11 12 10 9 9 8 8 7 6 6 8 8 8 7 10 9 8 9 9 8 7 7 7 8 9 9 10 11 12 12 12 12 11 10 11 11 10 10 10 10 10 10 10 10 10 10 11 11 11 11 11 11 11 10 10 10
3 2 2 4 3 4 4 1 2 1 2 3 7 3 4 3 5 7 6 4 2 1 4 3 5 6 3 2 2 4 3 4 6 8 10 10 10 12 11 11 11 11 11 10 10 9 8 9 6 5 6 5 6 5 8 9 9 9 8 8 8 7 7 8 9 9 10 10 11 11 12 11 11 11 10 10 9 9 9 9 9 10 10 10 10 10 10 10 10 11 10 10 10 10 10 10 10
4 2 2 4 5 4 1 3 4 4 5 4 1 3 1 4 6 6 8 7 6 4 3 9 1 3 4 2 2 4 4 5 6 9 11 11 10 11 10 9 10 11 10 10 9 8 8 8 8 5 3 3 4 7 7 7 7 8 6 9 9 8 7 8 9 9 9 11 10 11 11 11 11 11 10 8 6 8 9 9 9 9 10 10 9 9 10 10 10 10 10 9 9 9 9 9 9
4 1 3 5 2 3 2 4 2 4 6 1 3 3 1 5 6 3 7 5 4 5 5 10 3 3 3 2 3 2 4 7 7 10 12 10 9 10 9 9 9 11 10 10 10 9 9 8 8 8 6 3 5 7 7 5 8 6 3 6 7 7 6 6 10 10 9 10 9 7 8 9 11 11 10 7 6 8 9 7 8 9 9 9 9 9 9 9 9 9 9 9 9 9 8 8 8
4 1 2 5 2 2 3 3 2 5 3 4 3 2 2 2 3 2 3 7 7 6 3 1 1 1 5 1 4 3 5 10 8 11 11 10 9 9 10 8 9 9 10 11 10 10 9 9 8 8 8 7 8 6 6 6 6 7 5 3 4 6 5 5 8 8 7 7 6 7 8 9 9 9 9 7 6 6 6 6 6 8 9 9 9 9 9 9 9 9 9 8 8 8 8 8 7
2 0 2 3 2 3 3 5 1 2 2 2 3 1 3 3 3 2 5 5 3 5 4 1 1 2 2 4 3 2 7 12 11 12 11 10 9 9 10 8 9 9 10 11 11 10 11 9 9 8 9 9 9 8 8 7 6 6 6 6 2 5 5 7 9 8 8 8 8 9 9 8 8 7 8 8 7 6 6 6 6 6 9 8 8 9 9 9 9 9 9 9 8 8 8 8 7
1 3 2 5 6 6 4 6 2 3 3 2 4 1 4 2 2 3 2 6 2 1 3 4 4 3 3 3 6 5 7 12 12 12 11 11 10 8 9 9 9 9 10 11 11 11 10 11 9 9 9 9 9 9 8 9 7 6 6 6 6 3 7 8 9 8 8 9 9 10 10 8 7 7 7 8 7 6 5 6 5 6 8 8 8 8 8 8 8 8 8 8 9 9 8 7 6
0 3 4 6 9 6 5 5 6 5 2 3 5 4 1 2 3 3 2 3 7 4 6 3 6 2 2 2 3 3 9 11 11 12 12 11 9 8 8 8 8 9 8 11 11 11 11 11 12 10 11 10 9 9 8 8 8 7 6 6 6 6 7 9 8 8 8 7 8 9 9 8 7 7 7 6 7 6 6 6 4 5 6 7 7 8 7 7 8 8 8 8 8 8 8 7 6
3 7 7 8 8 8 6 8 7 3 3 5 6 5 2 2 3 2 2 6 7 1 5 4 1 5 1 4 3 5 11 13 13 14 13 12 10 10 10 10 10 10 10 10 12 12 11 11 13 12 10 11 10 8 6 7 7 7 9 9 8 7 7 7 7 7 7 7 7 7 7 6 5 6 5 5 6 5 5 4 4 5 6 6 6 7 6 6 7 8 8 8 7 5 2 4 5
7 5 7 10 8 6 3 6 7 3 4 3 4 4 3 2 1 3 5 5 6 7 8 6 7 7 4 3 7 9 12 12 13 14 15 16 13 15 13 11 12 12 12 11 11 13 11 11 12 13 11 11 11 10 7 7 9 8 9 9 8 9 9 8 10 9 8 7 8 8 6 5 6 5 5 5 4 2 4 3 4 4 5 6 7 7 7 6 6 6 6 5 5 2 2 2 2
5 6 9 10 8 3 3 5 7 8 3 4 5 3 4 3 2 3 6 8 4 10 7 6 10 11 11 8 8 11 12 13 13 14 15 14 14 14 13 13 13 14 13 11 11 10 12 11 13 12 12 12 11 10 8 8 8 9 8 9 8 9 9 9 9 8 7 8 7 7 6 6 6 5 4 5 5 5 4 4 4 5 7 7 5 5 5 5 5 5 5 4 3 3 2 2 2
4 8 10 9 5 6 9 8 7 6 5 7 5 2 4 4 5 5 4 7 11 10 9 9 9 9 10 10 10 11 13 14 14 14 14 13 13 11 11 12 12 12 11 10 10 11 13 13 12 12 12 12 12 10 10 8 8 9 8 9 8 8 8 7 8 9 7 8 8 7 7 6 6 5 5 5 6 5 5 6 5 5 5 4 2 2 2 2 3 2 2 3 2 2 2 2 2
0 9 10 11 1 9 9 8 8 3 2 5 1 5 7 5 3 8 8 10 9 3 1 5 8 9 7 11 12 11 13 15 16 16 16 16 16 15 11 10 10 10 10 11 13 13 14 14 13 12 12 13 12 11 10 9 9 9 10 10 9 8 8 8 7 6 7 7 7 7 6 7 6 6 6 6 6 6 6 6 6 5 4 5 3 4 3 2 2 2 2 2 2 1 1 0 0
10 9 9 9 7 11 4 4 3 5 5 6 7 5 1 5 4 7 8 13 9 2 1 2 4 5 4 10 12 13 14 16 17 19 18 16 16 16 13 11 11 11 11 11 11 11 13 15 15 13 12 12 14 12 10 10 10 9 9 10 10 9 9 9 8 7 8 8 7 7 6 6 7 6 6 6 7 6 6 6 6 5 5 5 4 4 4 3 2 3 3 2 2 1 1 1 1
10 12 6 11 9 11 7 4 3 7 8 9 3 2 7 4 11 2 9 12 12 7 3 0 2 1 4 9 13 15 17 17 19 19 18 19 18 18 13 12 10 9 10 12 11 11 12 16 16 15 14 14 13 13 12 11 10 11 10 9 9 10 9 8 8 8 8 8 8 7 7 7 7 7 7 7 7 6 6 6 6 5 5 4 4 4 4 3 2 2 2 2 3 3 3 2 3
12 13 8 8 5 9 10 4 1 3 7 1 1 5 12 10 8 2 11 11 12 11 5 5 3 3 6 9 11 13 14 14 15 15 13 11 12 12 12 10 11 10 12 13 11 12 14 14 15 16 15 15 13 13 13 11 11 11 11 11 11 9 10 10 10 8 8 7 8 9 8 8 8 7 8 8 7 7 7 7 5 6 5 5 4 4 4 5 3 2 2 3 3 4 4 4 4
14 14 10 11 12 11 11 6 7 7 3 3 5 12 14 11 4 13 17 14 12 10 5 5 4 6 8 11 13 13 13 16 14 14 16 12 10 13 14 12 11 13 14 12 11 12 11 14 16 17 16 15 14 13 12 12 11 12 12 12 11 10 11 11 10 9 9 8 8 9 9 9 9 8 8 8 8 7 7 7 7 6 6 5 4 5 4 4 5 4 4 3 4 4 5 5 5
5 12 14 14 15 15 7 7 8 6 8 3 10 14 16 3 4 12 6 11 8 8 9 6 7 10 10 10 11 13 14 15 16 12 10 11 12 13 14 13 14 14 12 12 12 11 10 13 15 17 17 13 13 13 13 13 12 12 12 12 11 12 12 11 10 9 9 9 9 9 10 10 9 9 9 9 8 8 8 8 7 7 6 6 5 5 5 5 4 5 5 4 4 4 5 5 6
3 5 7 12 13 15 8 3 5 2 8 10 10 15 17 4 6 16 8 4 4 5 6 7 8 10 10 11 11 10 11 12 9 10 15 14 13 14 15 14 17 14 14 14 12 11 11 14 15 16 16 15 12 14 13 13 13 12 12 12 13 12 12 12 11 10 8 9 9 9 9 10 10 10 9 9 9 8 8 8 8 7 7 6 6 6 5 5 5 5 5 5 5 5 5 5 5
7 5 12 13 12 14 15 14 10 8 8 4 3 11 17 9 13 19 16 12 5 8 10 8 9 10 10 9 9 9 10 10 9 11 15 15 13 11 15 16 14 14 12 13 13 13 15 15 15 16 16 16 17 17 13 13 13 12 12 12 11 11 12 11 11 11 11 9 9 10 10 10 9 9 9 9 6 9 8 9 8 8 7 6 6 6 7 5 5 5 5 4 5 5 6 6 6
2 8 11 12 13 17 18 12 10 9 8 8 5 15 13 15 18 21 15 10 9 10 13 13 9 10 9 9 9 10 9 9 11 13 12 12 11 12 14 13 13 12 10 10 13 15 13 10 11 12 15 17 17 16 15 13 14 12 11 12 11 12 12 12 13 13 13 12 10 11 10 11 10 9 10 10 9 9 9 9 9 8 7 7 6 6 6 6 5 5 5 4 5 5 6 7 6
9 8 5 12 11 15 10 13 11 12 8 10 9 17 13 12 9 16 9 10 11 13 15 15 12 10 9 8 9 10 12 12 14 15 14 13 12 11 13 12 14 14 9 10 15 16 14 11 11 12 14 17 15 15 16 15 13 13 13 12 11 12 11 13 12 12 13 12 11 10 12 11 11 11 11 10 11 9 7 8 9 8 7 7 6 6 6 6 6 6 5 5 5 6 7 8 7
7 6 13 11 13 8 7 8 16 16 4 13 11 17 16 14 13 6 6 8 10 14 16 16 13 11 11 8 9 10 11 11 13 13 13 14 13 11 12 14 13 14 15 13 12 12 14 15 14 14 15 17 16 15 16 15 14 14 12 12 12 13 11 11 12 11 10 10 10 10 11 13 11 12 12 11 10 10 9 9 9 8 8 6 6 7 6 7 6 6 6 7 7 8 8 8 7
9 14 15 11 12 13 7 10 11 15 7 11 19 13 1 4 12 17 7 10 11 13 15 16 15 13 12 10 9 9 9 10 10 13 13 12 13 13 12 14 14 16 15 14 14 14 14 16 15 16 16 17 17 16 16 16 15 14 14 13 14 13 13 12 10 9 9 11 9 11 12 12 11 12 12 12 10 10 10 10 8 8 8 8 7 7 7 7 7 6 7 8 8 9 9 10 9
14 13 14 13 15 11 12 6 6 11 12 9 15 15 19 9 1 3 2 7 11 13 17 18 16 11 11 10 9 9 10 10 12 13 14 14 12 14 13 13 15 14 14 15 14 14 15 14 14 15 14 15 15 16 17 16 15 14 13 13 11 13 14 12 12 12 13 11 11 12 12 12 11 13 13 12 11 11 10 9 9 10 9 9 9 8 8 8 8 8 8 8 8 9 9 9 9
11 13 15 15 15 15 12 7 5 10 7 12 12 19 19 16 14 13 5 7 10 14 15 17 16 12 9 9 10 11 10 11 13 11 12 13 15 13 13 13 13 14 12 15 14 13 12 12 12 14 14 14 15 15 15 15 15 13 12 11 12 15 13 13 13 13 12 13 13 14 13 13 13 14 14 13 11 11 11 9 9 10 10 9 9 9 9 9 9 9 10 10 9 9 9 9 8
14 18 14 10 12 12 11 9 3 12 9 12 17 16 14 16 16 14 17 7 10 13 15 13 11 9 10 11 11 11 10 13 13 9 9 10 11 12 12 12 12 12 13 13 15 14 14 13 12 12 15 15 13 14 13 13 12 13 14 13 13 13 14 13 14 14 13 13 14 13 13 13 13 12 13 14 13 12 11 11 11 10 10 10 10 10 10 10 11 11 11 11 12 9 8 8 8
8 7 11 14 13 11 5 11 6 8 10 17 17 19 19 18 16 16 18 17 12 13 14 13 12 11 11 11 12 12 12 14 9 5 8 12 13 11 11 10 11 13 13 14 15 16 16 16 15 17 15 14 12 13 14 14 15 14 14 15 16 14 14 14 13 14 14 14 14 14 14 13 13 13 13 13 14 11 11 11 11 11 11 11 11 11 11 11 11 11 10 10 11 12 10 7 7
14 11 9 12 14 15 13 10 8 6 10 15 15 18 21 19 18 15 16 19 21 14 15 17 17 16 13 13 13 13 13 11 8 8 10 10 10 12 10 10 12 14 15 16 17 18 17 18 17 16 13 14 16 15 14 15 15 14 15 16 15 14 14 14 15 14 14 13 14 14 14 14 14 13 12 13 13 13 12 12 12 12 12 11 11 11 11 11 12 11 10 9 8 10 11 8 7
18 16 15 13 13 10 1 5 9 6 7 16 15 18 17 16 15 14 14 18 17 15 14 17 17 17 15 14 14 14 11 12 12 12 12 11 11 11 10 11 12 16 14 16 18 16 16 16 16 15 14 15 16 16 14 15 14 14 14 12 14 12 13 14 13 13 13 14 15 15 15 14 14 14 14 13 13 14 14 12 12 11 12 11 10 12 12 12 11 13 13 11 10 8 8 8 8
17 17 16 18 12 9 11 9 8 8 10 11 11 15 17 17 19 19 18 18 19 18 17 18 17 18 18 18 15 15 16 15 16 14 14 14 12 10 11 12 14 12 12 14 15 17 15 15 15 16 16 16 15 17 17 16 14 14 14 11 11 10 9 10 13 13 13 15 16 15 15 14 14 14 14 15 13 14 15 14 12 12 12 12 12 11 12 13 12 13 12 13 11 10 6 8 9
20 21 18 18 18 11 13 6 9 7 12 11 10 13 17 16 17 15 16 17 18 20 19 20 20 18 17 16 16 15 18 17 17 17 16 15 13 13 14 14 11 11 14 15 15 15 13 18 18 18 16 16 16 17 18 15 12 12 12 13 12 11 12 11 11 14 15 15 14 15 17 15 15 14 15 16 15 15 15 14 14 13 13 13 12 12 12 13 13 13 13 12 13 12 11 8 9
16 21 22 21 17 17 7 4 4 6 11 12 12 11 17 13 18 21 15 12 20 20 21 22 22 20 17 19 18 17 17 16 18 18 18 17 15 14 13 13 13 14 15 16 15 16 16 16 17 17 15 14 15 17 16 14 13 13 13 14 14 14 15 14 17 17 15 16 17 15 15 15 14 13 14 16 16 14 15 15 15 14 14 13 13 12 12 12 13 14 13 13 13 14 11 10 8
14 15 22 23 20 16 16 11 7 13 17 2 6 14 19 11 13 13 13 16 20 16 20 23 21 20 17 16 16 15 16 16 17 18 18 17 15 15 14 13 14 16 17 15 13 15 17 16 16 18 16 15 14 15 17 15 15 13 16 16 14 14 14 14 13 11 11 11 10 13 14 14 14 15 16 16 16 15 15 15 15 15 14 14 13 13 13 14 13 13 12 13 13 11 12 11 12
14 1 8 14 21 23 19 14 13 14 3 3 6 10 14 20 14 16 14 16 18 18 20 21 18 18 18 16 16 17 17 18 17 18 19 19 18 16 17 16 15 16 16 11 12 13 17 18 17 17 15 15 14 14 17 16 16 15 16 16 14 14 15 14 13 13 11 9 11 12 12 14 15 16 15 16 17 15 14 16 16 14 15 15 13 13 14 13 12 12 12 14 12 11 13 12 11
5 8 13 15 16 18 14 10 13 11 9 13 9 4 10 19 17 11 17 18 23 24 22 20 17 16 16 16 16 18 19 19 19 18 18 18 16 17 17 16 15 15 11 11 14 15 15 15 15 16 16 16 15 17 17 18 17 16 16 15 15 14 14 13 10 10 11 12 12 11 13 13 14 16 16 16 16 17 13 15 16 16 16 16 13 14 14 15 16 15 13 13 14 13 13 12 11
10 8 9 11 11 10 13 13 15 9 6 15 14 10 13 20 21 11 15 20 22 20 18 19 18 16 16 16 18 19 17 16 17 20 20 18 16 16 17 18 15 12 14 13 14 13 13 13 15 17 19 15 15 17 18 19 20 17 16 17 19 16 13 12 11 11 12 12 13 13 13 12 12 13 15 16 16 17 17 16 16 18 17 16 13 15 15 15 15 14 14 14 14 14 12 13 14
8 11 10 11 10 11 11 11 10 9 18 16 15 20 17 18 22 13 15 17 16 9 10 13 14 16 17 17 16 15 15 15 14 15 18 19 16 17 15 15 17 16 10 13 13 14 14 15 16 18 20 15 14 17 19 21 19 18 17 19 21 20 18 15 13 13 12 12 13 14 13 12 11 12 12 14 16 17 17 15 16 17 16 14 14 15 15 15 14 14 14 14 14 15 13 14 12
11 7 10 2 5 6 9 9 11 14 16 12 19 23 22 19 21 10 15 17 14 16 20 16 14 14 13 14 14 16 17 15 14 14 15 16 17 15 15 16 17 17 13 11 11 12 13 14 14 17 17 17 15 16 17 19 17 19 20 20 20 21 18 14 17 16 16 16 15 13 12 11 12 12 12 13 15 18 16 16 16 16 15 16 16 15 15 14 13 13 13 12 12 15 15 13 14
13 14 12 12 5 7 13 8 16 19 13 12 17 18 17 27 27 16 3 2 3 5 8 9 10 12 10 10 11 11 13 15 15 14 13 12 12 12 12 15 14 12 10 13 13 11 12 12 15 16 18 18 17 17 18 19 18 18 20 21 21 18 17 17 16 16 14 13 13 13 12 13 12 12 13 14 16 19 17 16 17 16 16 16 16 15 15 15 14 13 14 14 14 14 13 15 14
12 15 13 14 14 11 10 12 6 5 9 10 10 15 17 10 21 31 29 28 19 16 9 6 9 10 11 11 11 12 12 14 14 13 12 12 11 10 12 13 14 12 14 13 14 13 12 13 16 17 20 18 17 16 18 18 20 19 19 19 18 17 17 18 16 15 15 13 12 13 14 13 12 14 14 15 14 15 16 17 16 17 16 16 16 16 14 14 15 14 14 15 14 13 13 16 15
17 11 15 12 9 11 14 12 15 11 6 8 9 8 6 15 19 5 9 12 18 24 24 21 17 15 13 11 8 9 9 10 10 10 12 14 14 13 11 12 11 11 12 13 12 13 13 14 15 18 19 18 18 18 17 19 18 20 19 18 17 15 16 16 16 14 14 14 13 13 13 12 12 12 13 13 12 14 17 16 16 16 16 16 15 15 14 15 14 14 13 14 13 13 14 15 15
11 10 6 12 18 6 19 7 11 12 4 5 12 11 7 14 20 11 2 3 3 9 15 17 20 16 10 8 8 10 10 10 9 11 13 15 16 14 11 11 11 12 13 10 12 10 11 14 15 18 19 18 17 17 17 18 20 18 19 19 19 18 14 13 12 12 14 14 14 14 14 13 12 11 10 11 13 13 14 15 16 16 16 16 15 15 15 14 15 15 14 13 15 10 13 15 15
7 10 16 13 6 12 9 12 1 5 5 15 5 8 11 7 16 16 17 14 6 7 8 10 12 14 15 16 14 13 11 10 9 10 11 14 13 12 11 12 10 10 9 10 12 12 14 13 14 17 18 16 16 17 19 18 18 17 18 19 18 17 17 18 17 18 17 14 13 13 13 13 12 11 10 11 11 13 12 13 14 16 16 16 16 15 15 15 15 14 14 15 15 13 13 16 14
4 14 8 2 4 4 5 6 5 11 9 4 11 15 10 11 13 9 20 19 16 14 12 11 13 13 15 14 14 13 14 15 15 14 14 13 13 12 10 8 11 11 11 9 10 9 9 11 13 15 16 17 17 18 19 17 17 18 17 18 20 19 18 18 17 16 14 13 13 12 12 12 13 12 10 8 11 12 13 14 13 15 15 16 16 15 15 16 15 14 15 15 14 14 14 13 13
15 8 11 12 7 11 4 3 10 8 10 4 9 14 15 16 16 1 7 17 18 12 13 14 11 10 11 12 13 14 15 14 13 14 11 11 14 11 11 9 7 7 7 8 7 7 8 11 13 15 18 18 19 15 15 15 16 14 14 17 19 18 16 16 16 16 13 14 15 14 14 15 12 12 11 10 11 12 12 12 13 15 15 16 16 15 15 15 16 14 14 13 14 14 13 13 13
7 5 8 1 2 4 8 7 2 1 9 6 9 11 12 14 14 20 14 12 7 9 12 15 14 13 11 10 11 12 12 13 12 9 9 10 11 11 9 8 8 9 8 7 9 8 12 13 14 16 16 15 15 16 15 17 16 15 14 14 15 15 16 16 16 15 14 14 15 15 15 14 14 11 11 12 12 13 13 14 14 16 15 15 15 16 15 15 15 15 14 13 13 14 14 13 12
10 8 10 6 6 1 1 4 4 5 5 10 5 10 5 11 13 19 17 16 9 7 9 10 12 15 15 15 13 12 14 14 14 11 8 9 10 10 7 5 5 6 8 8 9 12 13 12 14 15 17 18 18 17 15 16 14 16 16 17 16 16 17 16 16 15 15 15 14 13 14 13 11 11 12 12 13 14 14 14 14 15 17 16 16 16 15 14 15 15 14 13 13 15 15 13 11
14 13 13 13 10 11 14 16 4 6 4 2 2 7 1 1 7 11 12 13 14 12 13 10 10 12 12 11 12 12 10 12 13 11 10 9 8 6 5 5 6 7 8 10 11 10 11 13 14 14 15 15 16 15 15 15 15 14 16 16 18 16 15 15 16 16 16 16 15 14 13 12 13 12 12 13 14 13 13 15 14 16 17 17 16 16 16 15 15 15 15 12 13 14 14 14 11
Wind_Direction
325 333 317 320 257 334 243 345 237 115 247 67 104 297 78 321 339 267 173 147 182 106 62 130 126 150 246 4 357 17 13 291 359 306 36 62 144 144 108 135 144 144 144 142 142 148 156 149 147 134 134 152 146 127 130 138 147 154 148 99 110 122 132 138 137 130 118 103 105 104 99 96 93 94 103 109 108 105 101 95 91 89 87 89 90 86 86 85 83 84 81 82 83 82 83 84 81
329 317 297 281 282 292 214 327 351 247 150 138 70 289 61 17 250 243 146 182 26 94 122 125 154 98 62 18 70 271 166 1 347 20 73 89 146 144 110 160 154 148 148 146 149 153 149 142 133 139 142 153 155 138 137 148 160 156 129 110 116 131 137 138 139 125 115 116 115 112 103 102 102 104 110 111 109 104 98 95 92 91 92 91 89 90 90 87 85 85 87 85 84 85 85 82 81
330 337 329 278 210 15 192 253 264 16 333 75 88 35 110 252 270 82 46 57 58 91 136 115 128 184 219 230 208 264 78 259 91 80 69 124 148 165 158 158 161 148 151 151 152 152 153 142 133 143 144 153 147 143 138 151 159 140 118 129 125 125 129 130 128 124 126 127 123 109 105 102 103 107 108 109 107 105 101 94 91 91 93 94 96 93 88 86 88 86 84 85 87 86 87 86 81
277 354 333 313 343 195 329 7 43 331 31 39 133 90 338 338 343 29 54 86 108 119 141 150 181 72 277 237 13 191 240 145 293 151 149 174 171 143 151 167 158 155 151 154 156 155 160 131 132 134 143 154 146 141 142 153 165 130 130 129 128 126 122 119 125 124 127 123 117 112 108 106 105 108 112 112 109 105 101 101 98 94 94 96 95 94 95 94 93 91 90 90 88 86 85 83 82
298 3 347 343 308 37 338 24 3 294 37 88 28 93 12 356 338 344 93 126 118 107 187 137 222 92 347 328 356 287 73 72 181 187 87 147 90 137 154 161 163 155 159 159 157 156 147 133 136 145 153 151 147 151 148 155 157 128 131 133 133 132 134 137 129 125 123 123 120 116 113 112 112 116 116 115 113 110 108 106 104 101 98 97 98 99 96 93 91 91 91 90 90 89 88 86 83
226 339 19 333 11 54 220 220 158 10 47 51 298 41 26 20 330 36 136 153 131 294 352 199 323 145 188 157 349 311 53 230 68 190 174 140 156 138 153 158 167 165 163 162 161 159 152 137 144 153 154 148 156 157 153 157 157 137 140 140 135 132 134 131 126 134 131 129 122 120 115 116 118 117 119 119 118 117 112 107 104 105 103 99 99 98 97 95 93 93 94 93 92 92 91 90 88
357 292 45 123 126 241 339 338 340 339 85 276 339 335 9 31 355 172 153 168 213 272 204 218 205 149 223 124 195 215 39 58 189 94 215 127 159 150 155 165 169 167 162 164 166 160 146 144 149 154 148 156 162 164 156 161 160 148 146 153 138 134 133 129 129 138 138 133 129 122 121 119 119 120 120 122 120 119 117 114 111 106 105 103 100 99 98 96 95 94 95 93 93 94 93 93 92
162 311 0 318 29 301 23 340 301 311 72 263 337 291 342 81 133 196 175 196 170 218 161 235 252 269 47 284 291 98 97 217 9 39 129 146 155 155 166 166 172 169 168 169 167 156 137 152 152 154 157 163 168 170 156 163 160 155 151 166 146 138 141 141 139 126 120 133 132 124 123 121 119 119 119 121 123 123 123 120 118 113 108 103 99 96 98 100 102 102 100 98 95 95 95 95 97
8 333 178 250 261 116 250 300 324 136 292 211 266 245 287 268 226 201 188 198 73 231 159 188 200 231 111 172 239 97 137 67 244 139 160 152 160 162 171 174 175 172 171 172 168 162 159 148 157 152 158 165 168 167 171 145 149 157 161 164 148 147 148 141 137 124 134 151 137 129 126 124 122 124 126 126 128 126 125 124 121 119 114 110 106 105 103 103 105 106 105 104 100 98 97 98 99
78 329 44 357 349 270 318 210 258 85 309 320 295 295 293 192 207 214 189 193 211 175 132 73 239 265 74 246 171 173 124 76 130 143 155 159 160 166 173 177 176 175 173 173 172 172 164 151 154 152 166 166 170 179 153 135 144 163 163 162 158 156 155 146 135 140 149 152 140 132 130 126 126 128 130 131 130 130 127 127 124 121 121 118 114 109 107 107 108 111 111 108 107 101 102 101 101
285 73 4 245 241 270 263 297 284 197 278 313 283 285 305 222 204 184 197 195 123 250 119 166 211 230 235 240 298 67 78 143 166 155 162 160 163 168 173 181 177 178 177 175 176 176 169 167 147 161 177 172 180 164 133 144 152 162 164 157 160 163 155 147 139 149 156 148 145 139 134 130 128 128 130 131 129 130 131 127 128 129 125 122 119 114 112 112 115 117 116 114 111 111 106 106 104
270 248 208 260 257 268 322 298 298 301 312 283 281 44 57 191 185 170 186 205 190 208 199 179 20 141 213 265 177 131 97 173 182 152 162 161 171 173 174 179 182 180 176 183 177 180 173 164 173 156 178 176 161 150 142 153 159 162 166 157 158 160 156 154 141 149 158 151 152 144 139 135 132 129 127 126 123 129 130 132 134 131 130 127 122 121 120 120 119 119 119 118 118 119 117 111 107
290 116 253 260 266 242 85 261 273 317 288 315 2 57 324 176 194 215 184 201 163 200 219 200 29 243 266 238 66 134 187 183 166 158 162 166 168 172 174 182 186 184 178 186 184 184 182 174 179 177 168 153 136 155 150 144 147 154 159 152 161 162 154 137 145 149 161 154 154 142 139 130 128 130 131 123 126 134 133 130 132 135 132 132 131 128 126 123 123 120 121 124 125 124 124 118 113
271 245 265 264 56 247 228 278 291 283 283 87 77 55 194 239 246 321 177 206 200 213 62 164 177 276 270 273 169 189 184 163 157 161 164 167 167 172 177 183 188 191 189 191 192 190 190 188 183 182 181 191 175 154 148 138 145 158 136 137 159 152 146 131 140 146 152 151 135 114 112 120 129 131 129 121 112 105 109 119 132 134 137 135 134 134 130 127 125 121 120 124 128 126 124 124 114
256 84 246 280 215 223 183 246 204 206 255 120 82 208 181 243 342 273 237 242 202 74 96 162 315 234 80 229 106 103 148 155 157 161 163 164 169 175 179 185 190 196 196 198 198 196 195 191 189 187 187 192 189 189 184 144 139 147 149 152 123 145 140 115 127 134 136 125 120 116 113 117 121 129 125 122 116 116 103 99 102 126 139 141 139 136 134 130 129 126 121 119 119 118 118 117 115
10 200 242 244 238 226 173 223 165 255 237 124 105 200 200 206 187 254 280 305 53 50 202 175 208 257 348 298 55 40 131 146 154 159 160 165 170 177 183 188 194 199 201 201 202 201 200 194 193 192 190 193 194 195 189 180 143 146 161 161 135 126 129 131 134 130 128 123 120 120 119 122 128 128 127 130 128 122 135 137 114 127 135 140 139 137 135 136 138 130 123 116 108 102 100 98 98
196 269 218 230 248 200 171 213 163 240 98 113 132 185 212 104 133 257 308 295 249 178 197 181 190 169 238 32 35 32 139 138 151 158 161 167 175 179 189 195 199 202 203 205 207 202 203 200 198 196 194 193 194 197 197 195 158 147 160 158 137 139 142 141 134 124 119 117 124 128 138 168 165 153 164 163 136 151 125 122 132 113 124 122 124 123 121 136 136 135 123 109 97 94 89 81 69
211 221 231 233 248 224 189 207 191 37 210 141 168 167 186 203 159 166 197 230 244 143 221 177 230 224 183 82 57 125 140 152 161 164 172 173 178 184 191 197 199 205 203 206 209 206 203 204 202 199 195 196 194 194 199 198 182 190 199 184 183 159 151 148 153 164 151 149 133 154 181 180 189 188 178 156 186 138 154 131 135 124 110 106 111 115 98 99 127 123 108 98 87 82 163 149 128
222 225 230 247 230 243 151 224 207 186 230 175 141 168 212 273 257 133 261 250 217 233 222 208 217 212 155 145 131 143 154 164 171 178 178 180 184 187 192 195 201 204 206 207 208 207 206 205 203 202 201 196 198 199 196 202 202 199 207 200 192 185 178 179 192 179 190 171 173 187 196 193 202 195 191 186 189 162 90 82 71 89 93 89 95 85 74 74 78 84 95 86 89 133 211 157 143
218 241 231 239 251 253 230 225 221 226 295 227 207 178 229 146 201 123 249 280 236 252 244 192 223 223 199 157 152 152 168 174 182 187 192 192 192 190 192 195 199 205 205 204 206 208 208 208 205 204 201 198 199 201 201 204 205 203 205 204 201 196 197 198 200 193 192 189 186 193 201 195 195 200 111 130 129 165 135 99 81 112 113 97 112 126 112 82 111 112 114 135 165 193 188 193 161
146 224 238 243 245 247 235 218 235 225 243 262 259 110 255 196 202 197 254 269 252 252 247 259 254 235 194 160 163 161 172 179 190 197 200 203 202 202 202 199 199 199 203 201 207 208 208 209 207 206 203 201 200 202 204 204 203 205 204 205 202 202 198 199 201 200 197 196 195 198 199 190 196 192 179 174 195 188 181 186 182 198 193 185 205 194 208 177 214 178 177 199 192 179 208 196 221
120 232 244 251 70 251 260 208 222 205 25 264 235 240 268 87 174 215 227 248 263 302 340 260 276 301 166 166 172 169 176 184 193 200 205 204 203 204 204 204 200 201 197 205 207 206 206 208 209 207 204 205 203 205 205 205 205 208 206 206 201 201 204 200 199 202 196 197 199 206 197 196 199 198 195 197 199 199 198 203 208 208 208 210 200 215 215 223 215 205 206 219 208 210 235 237 261
242 222 242 253 253 256 269 226 190 189 211 222 237 248 345 233 252 207 227 242 261 359 53 317 319 311 245 169 164 178 181 189 195 202 203 205 206 208 207 203 197 197 198 208 204 206 204 206 208 208 207 205 207 208 207 207 207 210 210 208 206 201 206 204 200 206 199 195 197 195 195 200 201 204 203 205 205 203 208 206 212 211 212 214 208 223 225 223 231 218 214 214 210 218 223 236 235
239 254 211 234 238 244 255 284 111 207 219 234 244 50 238 223 260 129 232 244 256 264 141 139 0 251 170 170 183 185 188 190 197 203 203 205 204 204 201 201 203 200 206 208 207 204 204 205 205 205 209 207 207 207 211 211 211 214 213 210 211 207 199 204 205 207 201 198 196 194 201 208 208 206 208 208 208 205 214 212 212 207 211 215 212 221 228 225 224 223 224 221 219 216 228 232 243
227 236 233 250 253 252 256 232 215 223 231 52 202 242 251 243 267 108 250 248 252 258 219 239 240 189 191 200 197 203 198 198 203 204 207 213 212 210 206 207 203 199 208 208 204 205 204 204 203 206 207 209 208 206 210 214 215 215 216 216 213 201 208 211 208 204 203 202 202 201 198 209 214 213 213 212 209 209 211 214 211 213 210 213 208 218 227 236 238 240 238 237 235 238 231 231 236
217 234 234 238 245 251 252 227 228 228 236 206 254 254 264 262 41 265 258 257 253 252 219 223 209 210 203 207 205 204 207 204 202 199 204 204 208 206 210 210 207 209 210 207 204 208 205 202 204 206 207 207 209 208 211 214 214 216 218 219 219 207 214 214 211 210 210 205 204 205 204 210 212 215 217 217 212 211 213 215 214 216 216 214 210 220 220 229 239 240 248 252 250 247 246 244 243
170 221 233 239 245 251 229 229 235 229 248 205 246 260 263 147 196 265 229 235 246 244 242 218 227 236 221 216 211 210 211 212 204 199 192 201 206 210 210 210 213 215 208 208 206 208 204 205 209 208 207 204 207 209 212 216 215 217 217 219 222 218 216 214 212 213 213 212 211 206 208 210 217 219 220 217 214 215 213 214 217 215 216 216 214 223 222 224 228 235 239 243 245 248 249 249 246
226 234 241 246 249 249 239 206 219 150 247 212 238 260 265 155 209 250 247 149 167 224 224 212 222 234 234 223 219 214 218 220 212 196 201 196 204 204 203 205 210 208 205 208 206 202 203 209 211 211 208 202 204 211 211 216 218 218 219 218 220 221 218 218 215 217 216 217 212 210 210 212 215 222 221 220 220 216 216 215 217 217 219 218 216 221 221 219 226 232 236 244 254 260 263 254 244
233 202 251 246 243 247 237 233 223 193 241 152 203 274 256 200 231 247 244 245 226 244 253 228 222 229 234 226 219 220 220 212 205 209 214 210 209 201 206 206 201 202 209 206 200 197 203 205 212 212 210 207 206 210 210 214 218 220 219 220 221 218 218 217 219 220 222 220 217 216 216 216 214 218 221 220 213 222 220 219 219 219 219 219 216 218 224 224 225 228 232 233 241 246 255 259 252
191 222 246 260 248 252 238 226 214 193 225 155 143 265 244 238 221 240 238 223 230 245 247 244 228 229 227 221 219 224 222 211 212 218 221 220 215 209 213 206 203 203 201 201 200 203 200 199 203 209 211 211 209 211 211 212 216 219 220 222 222 220 221 221 224 224 224 225 219 219 217 217 215 217 219 222 219 223 225 225 223 219 215 216 217 216 221 222 224 224 229 227 233 241 248 256 251
221 226 219 241 251 254 228 205 166 219 170 174 195 258 259 265 232 232 216 217 223 234 244 243 229 223 224 216 221 226 224 214 217 218 218 219 218 215 214 208 203 204 198 197 200 203 196 195 196 207 207 211 207 209 212 215 215 218 219 221 220 216 220 225 227 227 227 226 224 221 222 221 217 218 218 222 224 223 218 224 225 224 215 209 214 216 219 221 224 229 228 229 235 238 249 257 255
216 208 229 224 236 246 154 191 179 218 159 193 196 253 265 253 255 246 169 205 220 237 247 246 236 223 224 218 220 228 232 220 226 229 221 218 217 220 213 211 206 205 208 204 203 198 200 198 197 206 203 208 210 209 213 216 216 217 219 220 223 218 215 220 225 223 223 223 222 223 219 219 216 218 218 218 225 223 223 226 226 223 210 204 212 217 217 221 222 229 230 234 245 248 252 255 251
213 226 244 230 219 235 249 183 199 212 200 193 201 246 287 218 235 247 208 193 200 230 242 246 241 229 227 224 222 229 235 231 227 229 225 219 219 218 217 214 210 210 209 206 203 198 203 202 199 204 205 203 208 208 212 215 218 219 220 221 223 222 221 221 219 218 220 221 216 219 217 217 215 218 219 217 221 224 225 227 223 215 213 216 217 216 216 220 223 222 233 231 240 256 255 258 258
224 217 243 241 239 230 231 112 206 204 211 211 214 241 248 270 353 267 228 217 226 232 245 248 244 230 222 225 225 227 229 234 230 224 223 218 222 218 217 214 214 212 211 209 205 199 200 199 201 205 208 204 208 209 210 213 217 220 222 224 219 223 224 225 225 224 225 222 221 222 218 217 215 217 220 219 221 224 227 224 222 218 217 222 224 221 223 221 223 226 235 233 237 245 253 257 260
219 215 231 233 237 236 239 224 174 180 207 239 220 231 244 245 249 253 209 210 228 238 241 250 250 242 224 229 235 235 236 235 240 226 216 216 221 220 217 215 214 212 211 208 207 206 202 202 200 200 209 208 206 211 210 213 217 220 222 221 221 224 226 225 225 226 225 224 225 225 222 222 220 219 220 219 221 222 224 223 220 219 217 220 224 225 225 225 225 227 233 240 235 242 252 255 258
215 217 228 249 239 231 237 228 184 184 205 220 232 243 245 237 241 241 255 200 224 236 242 253 257 251 243 238 235 236 233 241 246 233 214 219 220 217 214 213 213 210 210 208 207 204 204 202 200 202 208 207 203 211 210 211 213 217 218 219 222 222 224 224 224 227 224 224 225 223 222 221 220 214 215 217 218 220 220 222 225 219 220 220 222 223 222 223 222 222 230 236 242 237 242 254 255
259 246 238 240 242 251 211 208 188 194 242 244 239 243 247 248 236 230 244 250 232 239 247 250 254 253 246 240 240 240 239 244 241 185 219 231 229 219 214 210 212 210 211 209 206 206 203 201 197 203 202 201 198 206 210 208 210 215 219 220 221 219 220 222 225 225 225 226 224 222 220 221 220 214 210 212 215 213 215 219 221 221 218 218 221 225 223 223 225 227 230 229 235 241 243 230 246
248 257 255 253 243 248 237 222 168 192 217 255 249 252 250 250 249 237 236 249 249 232 241 247 250 250 248 240 241 243 244 249 249 246 239 235 230 221 212 211 208 208 211 206 208 208 206 203 202 204 195 196 202 204 205 209 208 208 208 214 217 219 219 217 223 221 223 227 226 222 221 222 219 215 207 207 211 212 211 217 218 218 214 217 222 226 223 224 227 230 231 234 218 234 244 234 227
241 242 246 255 250 249 234 218 211 188 217 255 262 266 260 257 250 237 228 244 252 249 236 248 248 249 249 245 237 240 242 246 247 239 239 236 226 218 214 219 217 215 210 206 212 209 208 206 209 202 199 196 199 201 202 207 206 207 204 207 208 217 221 226 227 227 223 224 225 223 222 222 219 218 213 209 215 216 215 213 216 216 213 214 215 222 224 223 224 227 226 228 229 224 238 237 224
237 237 236 240 245 225 247 214 194 203 213 255 257 260 267 263 254 244 228 228 248 246 236 241 243 245 246 248 244 239 241 246 249 240 235 230 228 214 212 220 221 213 212 214 210 209 207 209 209 205 203 199 198 199 202 207 204 205 210 212 207 212 216 219 231 231 227 226 227 222 222 220 220 220 215 212 215 217 216 216 216 214 212 211 214 218 219 222 221 223 223 225 230 236 197 227 219
229 233 236 238 236 233 247 254 192 217 237 259 284 271 269 254 251 242 227 223 239 243 239 236 241 235 238 246 250 241 248 248 250 249 244 238 222 218 214 217 212 208 212 214 207 203 204 206 205 205 207 204 203 202 201 201 198 200 208 221 228 228 234 230 228 230 226 225 225 222 223 219 219 218 216 215 214 217 216 217 218 217 215 213 213 220 224 224 221 220 218 218 217 226 234 229 219
234 231 231 237 242 243 229 237 204 248 249 226 220 274 261 251 245 242 237 212 224 232 237 236 233 235 223 232 239 243 241 241 246 247 243 237 227 224 217 214 208 214 219 218 209 204 203 207 204 203 206 210 210 206 200 194 199 198 198 208 212 216 224 221 223 222 216 219 220 224 224 220 216 215 216 217 215 215 217 218 218 219 219 217 217 223 228 226 222 220 216 215 218 220 230 238 229
233 227 218 230 236 244 247 238 217 246 252 255 180 241 274 268 252 234 231 218 229 227 227 236 233 235 231 229 232 237 238 242 244 244 245 243 235 223 222 210 210 217 222 218 208 209 208 210 204 201 202 206 206 203 196 194 203 204 204 206 207 206 212 219 220 218 216 216 213 219 223 219 211 214 216 216 217 215 216 217 217 219 220 221 219 223 227 226 225 221 217 213 218 216 217 230 235
242 183 196 198 224 232 236 242 243 255 309 71 200 240 271 284 245 247 233 229 243 239 228 231 228 232 237 237 233 237 240 240 244 245 239 236 239 234 230 222 212 216 222 210 206 210 213 213 205 203 204 205 202 196 193 195 200 203 205 208 209 213 215 220 209 210 210 210 209 213 220 221 217 215 217 218 219 216 212 216 217 217 219 221 218 220 226 225 226 221 211 214 215 215 213 219 226
239 127 148 198 211 225 226 223 235 246 258 250 228 160 255 259 267 233 213 234 242 242 239 237 226 219 230 234 232 232 235 235 236 244 246 239 231 232 233 234 222 219 218 204 205 209 214 217 212 209 209 206 202 192 191 196 201 203 202 205 211 218 220 223 213 207 204 204 212 211 215 217 218 219 219 219 218 217 209 213 215 215 217 219 217 224 225 227 225 222 213 212 213 216 216 219 226
216 134 191 217 214 196 199 221 234 227 209 239 227 201 246 265 266 246 215 222 240 241 240 242 235 212 216 227 228 230 235 239 236 241 248 248 236 232 230 232 233 217 211 207 211 209 211 210 211 212 214 211 203 195 193 197 199 201 206 209 211 214 211 215 208 206 202 199 206 208 209 210 212 215 217 217 216 216 214 212 214 216 217 218 217 222 224 224 224 222 219 215 213 213 215 220 225
125 156 227 235 220 220 222 224 223 243 239 227 216 219 223 264 266 231 221 224 231 244 244 241 241 229 218 223 228 225 231 239 239 237 243 248 243 238 238 227 228 228 206 207 212 211 209 206 209 211 215 212 205 202 198 199 198 199 206 210 211 214 208 203 200 207 202 199 204 204 203 207 206 207 210 215 215 213 214 212 213 216 217 217 217 220 222 222 221 221 221 219 217 214 215 219 221
159 185 208 199 236 206 221 216 204 230 240 214 214 218 217 241 268 252 237 248 235 230 244 244 243 235 218 221 226 230 234 239 243 243 242 243 244 236 232 236 234 231 221 203 211 211 212 213 212 216 218 213 209 207 203 203 200 203 208 211 214 217 210 203 205 209 203 203 202 201 202 202 204 204 201 212 213 213 212 213 212 215 216 216 218 220 222 222 221 219 221 220 218 216 219 222 227
197 201 198 203 200 167 219 162 216 215 222 205 215 207 225 233 250 252 21 36 7 264 276 267 261 263 241 227 233 230 232 237 241 244 243 244 242 239 234 240 240 234 216 211 215 212 212 214 213 215 221 214 213 207 205 204 201 204 207 210 215 216 212 212 213 215 208 205 203 201 197 201 200 201 204 206 214 210 209 210 210 212 214 215 217 217 221 220 220 219 220 219 219 215 216 220 224
198 201 190 202 215 209 225 207 232 245 231 220 223 182 229 242 260 255 250 252 263 273 268 263 266 266 261 239 228 230 228 232 238 241 245 248 247 240 237 238 237 233 224 218 215 210 207 210 210 212 220 213 210 208 207 207 208 210 209 211 215 214 213 212 214 214 211 208 204 202 201 202 200 202 201 203 201 200 208 211 210 212 214 215 215 218 218 218 218 219 221 221 219 220 219 220 224
202 198 202 210 202 219 234 229 228 226 240 209 172 180 212 171 237 50 232 243 237 241 242 234 230 237 244 243 244 242 244 247 244 250 251 250 250 241 232 229 231 231 225 217 210 208 208 212 212 214 220 216 208 207 205 207 211 214 213 213 214 213 213 212 214 214 210 208 207 204 205 207 207 207 202 202 192 193 202 210 212 213 212 213 213 213 215 216 215 218 222 222 222 221 221 223 225
198 195 230 225 220 184 240 227 246 236 169 177 180 209 176 207 247 233 297 145 183 233 241 243 245 239 225 245 243 240 238 238 234 239 245 247 247 247 235 233 234 236 233 220 217 208 206 214 213 216 219 219 210 205 206 209 213 214 214 213 215 214 215 215 216 215 215 209 206 203 206 208 212 210 202 192 187 186 193 204 212 214 213 213 214 213 212 213 213 215 219 220 222 216 220 221 225
161 171 212 213 6 239 257 262 168 356 227 232 145 238 228 298 263 248 243 243 183 213 233 236 233 228 227 234 234 233 234 231 233 236 241 247 249 247 242 243 241 241 237 227 223 210 210 212 214 218 221 220 213 207 210 211 214 214 215 215 214 212 212 210 213 213 210 209 206 205 207 209 208 208 204 189 184 188 193 197 208 215 215 214 214 214 212 212 212 214 217 218 220 216 218 224 222
114 214 195 127 68 30 241 253 205 224 230 254 195 223 209 204 267 204 229 240 235 204 204 219 216 211 221 229 237 240 240 243 239 239 241 246 251 252 247 232 237 242 243 243 239 225 217 220 221 221 223 220 216 213 212 213 212 214 215 214 214 214 213 214 217 219 215 211 208 209 208 208 206 203 196 176 185 189 195 194 206 216 215 214 214 213 212 212 212 215 217 218 218 215 218 222 223
211 236 134 197 194 237 168 304 230 219 228 200 210 229 224 199 230 222 194 228 227 202 195 214 214 211 222 229 236 242 245 247 244 240 238 244 255 256 254 258 257 251 255 258 254 235 225 226 228 226 226 222 219 216 215 214 213 212 212 213 212 214 215 216 216 218 215 209 208 208 209 211 208 197 192 181 190 195 195 194 205 219 217 215 214 212 211 211 211 215 216 216 214 214 216 219 219
231 37 201 76 61 252 216 216 333 298 253 218 228 197 238 206 225 242 235 239 212 212 199 215 225 223 218 229 232 234 238 241 244 247 247 248 254 260 257 250 245 237 235 232 236 229 228 225 223 226 230 231 224 218 211 214 214 215 214 213 214 213 215 216 217 214 214 214 212 210 210 209 208 195 192 189 192 197 195 197 205 216 216 215 213 212 210 211 211 215 214 213 213 211 215 218 217
201 214 218 183 221 178 358 292 234 230 258 246 239 220 227 215 208 235 238 246 239 202 217 206 220 231 229 229 231 236 245 253 256 256 247 241 247 258 253 242 244 241 233 231 223 225 224 219 222 220 222 224 223 219 212 215 212 216 215 214 213 211 213 214 216 216 217 219 218 213 213 211 202 197 186 188 193 196 196 198 200 213 217 214 212 211 210 210 211 214 215 214 212 212 215 219 214
205 205 222 214 208 220 234 255 197 228 237 234 238 251 284 124 206 235 244 245 248 232 230 220 218 231 239 241 244 248 261 263 260 261 265 269 268 274 286 255 242 243 240 232 231 229 228 222 222 222 224 227 225 222 214 214 212 215 213 214 214 214 212 211 213 215 216 218 218 213 210 207 202 197 187 190 195 195 198 196 200 211 217 216 214 213 209 208 210 213 214 213 213 212 214 217 211